Regional Weather Roundup
Issued by NWS

Home | Current Version | Previous Version | Text Only | Print | Product List | Glossary Off
Versions: 1 2 3 4 5 6 7 8 9 10 11 12 13 14 15 16 17 18 19 20 21 22 23 24 25 26 27 28 29 30 31 32 33 34 35 36 37 38 39 40 41 42 43 44 45 46 47 48 49 50

000
ASUS45 KSLC 061610
RWRUT

UTAH REGIONAL WEATHER ROUNDUP
NATIONAL WEATHER SERVICE SALT LAKE CITY UT
900 AM MST TUE DEC 06 2016

UTZ001>011-023>025-061700-

NORTHERN UTAH

CITY           SKY/WX    TMP DP  RH WIND       PRES   REMARKS
BRIGHAM CITY     N/A     18   8  65 NW5       29.89S WCI  11
HILL AFB       CLOUDY    14  -2  48 E18       29.84F WCI  -3
LOGAN          CLOUDY   N/A N/A N/A N3        29.89F
OGDEN          CLOUDY    18   2  49 S8        29.85F WCI   8
SALT LAKE CITY PTSUNNY   26  12  55 S7        29.86F WCI  18
TOOELE VALLEY  CLOUDY    27  18  69 E3        29.87S
WENDOVER       CLOUDY    18   5  57 CALM      29.87S
HEBER CITY     SUNNY     14   3  62 CALM      29.84S
WEST JORDAN    CLOUDY    26  16  65 S8        29.86R WCI  18

$$

UTZ011>015-024>027-061700-

CENTRAL/NORTHEAST UTAH

CITY           SKY/WX    TMP DP  RH WIND       PRES   REMARKS
PROVO AIRPORT  MOSUNNY   30  12  47 VRB3      29.88F
MOAB/CANYONLAN SUNNY     21   1  41 CALM      29.88F
DELTA          PTSUNNY   18  10  73 CALM      29.85F
PRICE          SUNNY     22   7  52 CALM      29.84S
RICHFIELD      CLOUDY    18  12  79 CALM      29.88F
ROOSEVELT      SUNNY     18   1  49 CALM      29.93S
VERNAL         SUNNY     17  -3  41 CALM      29.91F

$$

UTZ013>016-019>022-027-061700-

SOUTHERN UTAH

CITY           SKY/WX    TMP DP  RH WIND       PRES   REMARKS
BRYCE CANYON   CLOUDY    29  12  49 SW12      29.81S WCI  19
CEDAR CITY     PTSUNNY   21  13  71 N6        29.82S WCI  13
MILFORD        MOSUNNY   17   6  62 S5        29.85S WCI  10
ST GEORGE      SUNNY     37  19  48 CALM      29.88S
HANKSVILLE     MOSUNNY   16   9  73 CALM      29.93S
KANAB          PTSUNNY   34  21  60 CALM      29.90R
BLANDING       PTSUNNY   32  19  57 NE3       29.93R

$$

REGIONAL REPORTS     COLORADO/ARIZONA

CITY           SKY/WX    TMP DP  RH WIND       PRES   REMARKS
CRAIG, CO      CLOUDY     8  -4  58 E9        29.90F WCI  -5
GRAND JUNCTION CLOUDY    24   8  50 E12       29.89F WCI  13
RIFLE, CO      CLOUDY    20   9  62 CALM      29.91S
MONTROSE, CO   CLOUDY    20  10  65 SE3       29.92S
CORTEZ, CO     CLOUDY    30  21  69 NE7       29.86F WCI  23
COLORADO CITY    N/A     34  28  80 SE5       29.89S WCI  30
PAGE, AZ       PTSUNNY   42  12  29 CALM      29.83R
GRAND CANYON   PTSUNNY   36  16  44 SW15      29.90S WCI  27
KINGMAN, AZ    MOSUNNY   43  16  33 NE3       29.88R
FLAGSTAFF, AZ  PTSUNNY   35  15  44 SW17      29.93R WCI  25

$$

REGIONAL REPORTS    NEVADA/IDAHO/WYOMING

CITY           SKY/WX    TMP DP  RH WIND       PRES   REMARKS
LAS VEGAS, NV  MOSUNNY   45  19  35 S3        29.86R
ELY, NY        MOSUNNY   11   4  73 S10       29.78F WCI  -3
ELKO, NV       MOCLDY    17  12  80 S3        29.83S
POCATELLO, ID  CLOUDY    11   5  77 CALM      29.86F
BURLEY, ID     CLOUDY    14   9  80 NE10      29.85S WCI   1
FORT BRIDGER,  PTSUNNY   -2  -8  77 NE5       29.86R WCI -12
EVANSTON, WY   CLOUDY     2 -12  52 E10       29.78F WCI -14
ROCK SPRINGS,  CLOUDY    -1 -10  65 NE3       29.85S
KEMMERER, WY     N/A     -4 -11  71 N10       29.81R WCI -21

$$



USA.gov is the U.S. government's official web portal to all federal, state and local government web resources and services.